Powrót do katalogu

DELTA 1 R/B

AktywnyUNKNOWN
NORAD 1729·ROCKET BODY·🇺🇸 United States

Wystrzelony Nov 6, 1965 z Cape Canaveral Space Force Station

Loading…

Następne Przeloty (najbliższe 24 godziny)

TLE

ŚwieżeSource: Space-Track

Epoka: Sep 14, 2026, 06:49 UTC

1 01729U 65089B   26257.28457388 -.00000102  00000-0 -17640-3 0  9990
2 01729  59.3943 172.7822 0709011 248.3796 203.6759 11.97580039661097

Śledź DELTA 1 R/B w czasie rzeczywistym z AllMySat

Download on the App Store